CZ-6A DEB, 54506

Orbit data source: Space-Track

CZ-6A DEB, 54506 is space debris in SSO originally from a launch on Fri, 11 Nov 2022 UTC launched from the Taiyaun Space Center, China (TSC). Debris objects in space refer to the collection of defunct objects orbiting the Earth. Examples of debris include non-operational satellites, rocket bodies, and fragments generated from explosions, collisions, or faulty payload assembly.

Loading next visibility...
Identifier
54506, 2022-151JJ
Orbit
SSO
Country
Flag of CNCN / PRC
Related business
Manufacturer
SAST
Mission
Spacecraft
Bus & Motor
Unknown
Mass
Unknown
Launch date (UTC)
2022-11-11 (3 years ago)
Launch vehicle
Unknown
Launch site
Taiyaun Space Center, China (TSC)
Object type
Payload
Rocket body
Debris
Shape & HBR
Unknown shape, 1.1 m
Radar Cross Section
Small (<0.1 m²)

Expand to show TLE details & history
Last TLE update: 22 hours ago

TLE from 22 hours ago
0 CZ-6A DEB
1 54506U 22151JJ  26130.06342052  .00001329  00000-0  59835-3 0  9993
2 54506  98.8799 160.1055 0099147 332.7973  26.8030 14.21420733180256
Epoch: 2026-05-10T01:31Z
TLE epoch observation values (Epoch: 2026-05-10T01:31:19.532Z)
Latitude
-0.00002°
Longitude
-90.59776°
Altitude
759.892 km
Speed
7.507 km/s
True Right ascension
10h 40m 25s
True Declination
0° 00' 00"
Sunlit
Object was in daylight at epoch
Visualization orbit readout
Latitude
Unknown
Longitude
Unknown
Altitude
Unknown
Speed
Unknown
Apparent Right ascension
Unknown
Apparent Declination
Unknown
Sunlit
N/A
Visualization observer readout
Local Sidereal Time
07:25:17
Azimuth
Unknown
Elevation
Unknown
Doppler factor
Unknown
Orbital elements
Apogee altitude
889.061 km
Perigee altitude
746.372 km
Semi-major axis
7,195.854 km
Eccentricity
0.00991
Inclination
98.8799°
RAAN
160.1055°
Arg. of periapsis
332.7973°
True anomaly
27.32103°
Mean anomaly
26.803°
Eccentric anomaly
27.06144°
Mean motion
3.55566 °/min
Orbital period
101.25 mins
BSTAR
0.00059835
Loading maneuver chart data...
Computing Atmospheric mass density...
Loading historical data...
Loading historical data...
Loading historical data...
Loading historical data...
Loading historical data...
Loading historical data...
Loading historical data...

Documentation

Showing up to 5 results
|